Location: Adrasan
(36.3319°N, 30.4314°E)
Time: 08:36:47
(UTC+00:00)

Radarsat Rocket - Pass Details

Date: 09 December 2023
Orbit: 933 x 1491 km, 100.6° (Epoch: 29 February)

Event Time Altitude Azimuth Distance (km) Brightness Sun altitude
Rises 16:07:49 0° 158° (SSE) 3,579 6.9 -16.6°
Reaches altitude 10° 16:10:12 10° 157° (SSE) 2,632 6.2 -17.1°
Maximum altitude 16:15:58 76° 72° (ENE) 979 3.8 -18.2°
Drops below altitude 10° 16:22:03 10° 348° (NNW) 2,768 6.3 -19.4°
Sets 16:24:37 0° 347° (NNW) 3,778 7.1 -19.9°
